Starlink 30291

operational
NORAD ID: 57856 Int'l Des: 2023-141 Owner: SPXS Country: US Constellation: starlink
LEOCIRCULAR

About Starlink 30291

Description loading...

Live Position

Loading 3D Globe...

Upcoming Passes

Altitude History

Altitude vs Time

uPlot chart will show altitude changes over time

Two-Line Element Set

1 57856U 23141S 25302.96231644 -.00000006 00000-0 11914-4 0 9996
2 57856 53.1587 171.2943 0001224 104.3395 255.7742 15.30187725120311
Epoch: Oct 29, 2025 • Age: 22 hours

Current Status

Altitude 475.4 km
Velocity 7.63 km/s
Sub-Earth Point 12.95°N, 179.21°W
Launch Date Sep 12, 2023
Age 2.1 years
Type internet

Technical Details

Classification Payload
Mass 730.00 kg
Dry Mass 700.00 kg
Total Mass 730.00 kg
Length 0.30 m
Diameter 4.10 m
Span 29.00 m
Shape Box + pan
Manufacturer SPXS
Bus Type Starlink V2M
Phase Status In Orbit
Owner/State SPXS/US

Large Constellations

Loading constellations...